When you browse on this site, cookies collect data to enhance your experience and personalize the content and advertising you see.
Visit our Privacy Policy to learn more. By continuing to use the site, you agree to this use of cookies and data.
  • In United Kingdom
  • List of Countries
  • For 7 days
  • Water Temperature
  • Weather Map
  • Weather Widgets
  • user-avatar
    Login

    Hourly Weather Zenica

    Today, 23 October, Wednesday

    Time Temperature Precipitation Wind Pressure Humidity
    00:00 +12°C° 0 mm 0 mps 681 mmHg 53%
    01:00 +11°C° 0 mm 0 mps 681 mmHg 53%
    02:00 +11°C° 0 mm 0 mps 681 mmHg 52%
    03:00 +11°C° 0 mm 0 mps 681 mmHg 51%
    04:00 +12°C° 0 mm 1 mps 680 mmHg 51%
    05:00 +12°C° 0 mm 1 mps 680 mmHg 51%
    06:00 +12°C° 0 mm 1 mps 680 mmHg 50%
    07:00 +13°C° 0 mm 1 mps 681 mmHg 51%
    08:00 +15°C° 0 mm 1 mps 681 mmHg 46%
    09:00 +17°C° 0 mm 0 mps 682 mmHg 42%
    10:00 +20°C° 0 mm 0 mps 683 mmHg 37%
    11:00 +21°C° 0 mm 0 mps 683 mmHg 35%
    12:00 +22°C° 0 mm 0 mps 682 mmHg 34%
    13:00 +23°C° 0 mm 0 mps 682 mmHg 32%
    14:00 +21°C° 0 mm 0 mps 682 mmHg 39%
    15:00 +20°C° 0 mm 0 mps 681 mmHg 45%
    16:00 +18°C° 0 mm 0 mps 681 mmHg 52%
    17:00 +17°C° 0 mm 0 mps 680 mmHg 55%
    18:00 +16°C° 0 mm 1 mps 680 mmHg 58%
    19:00 +14°C° 0 mm 1 mps 680 mmHg 60%
    20:00 +14°C° 0 mm 1 mps 680 mmHg 61%
    21:00 +14°C° 0 mm 1 mps 679 mmHg 62%
    22:00 +13°C° 0 mm 1 mps 679 mmHg 63%
    23:00 +13°C° 0 mm 1 mps 679 mmHg 63%

    Tomorrow, 24 October, Thursday

    Time Temperature Precipitation Wind Pressure Humidity
    00:00 +13°C° 0 mm 1 mps 679 mmHg 63%
    01:00 +12°C° 0 mm 1 mps 679 mmHg 64%
    02:00 +12°C° 0 mm 1 mps 679 mmHg 62%
    03:00 +12°C° 0 mm 1 mps 678 mmHg 60%
    04:00 +12°C° 0 mm 1 mps 678 mmHg 59%
    05:00 +12°C° 0 mm 1 mps 678 mmHg 58%
    06:00 +12°C° 0 mm 1 mps 678 mmHg 57%
    07:00 +12°C° 0 mm 1 mps 678 mmHg 56%
    08:00 +14°C° 0 mm 1 mps 679 mmHg 50%
    09:00 +18°C° 0 mm 1 mps 679 mmHg 45%
    10:00 +21°C° 0 mm 1 mps 680 mmHg 39%
    11:00 +22°C° 0 mm 1 mps 680 mmHg 37%
    12:00 +23°C° 0 mm 1 mps 679 mmHg 34%
    13:00 +23°C° 0 mm 1 mps 679 mmHg 32%
    14:00 +22°C° 0 mm 1 mps 679 mmHg 38%
    15:00 +20°C° 0 mm 1 mps 678 mmHg 44%
    16:00 +19°C° 0 mm 1 mps 677 mmHg 50%
    17:00 +16°C° 0 mm 1 mps 677 mmHg 53%
    18:00 +14°C° 0 mm 1 mps 677 mmHg 56%
    19:00 +12°C° 0 mm 1 mps 677 mmHg 58%
    20:00 +12°C° 0 mm 1 mps 677 mmHg 58%
    21:00 +11°C° 0 mm 1 mps 677 mmHg 58%
    22:00 +11°C° 0 mm 1 mps 677 mmHg 58%
    23:00 +11°C° 0 mm 1 mps 677 mmHg 57%

    Day after tomorrow, 25 October, Friday

    Time Temperature Precipitation Wind Pressure Humidity
    00:00 +10°C° 0 mm 1 mps 677 mmHg 56%
    01:00 +10°C° 0 mm 1 mps 677 mmHg 55%
    02:00 +10°C° 0 mm 1 mps 677 mmHg 54%
    03:00 +10°C° 0 mm 1 mps 677 mmHg 53%
    04:00 +9°C° 0 mm 1 mps 677 mmHg 52%
    05:00 +10°C° 0 mm 1 mps 677 mmHg 52%
    06:00 +9°C° 0 mm 0 mps 677 mmHg 52%
    07:00 +9°C° 0 mm 0 mps 678 mmHg 52%
    08:00 +12°C° 0 mm 0 mps 678 mmHg 47%
    09:00 +14°C° 0 mm 0 mps 679 mmHg 43%
    10:00 +19°C° 0 mm 1 mps 680 mmHg 38%
    11:00 +20°C° 0 mm 1 mps 680 mmHg 37%
    12:00 +20°C° 0 mm 1 mps 681 mmHg 36%
    13:00 +21°C° 0 mm 1 mps 681 mmHg 35%
    14:00 +20°C° 0 mm 1 mps 681 mmHg 43%
    15:00 +18°C° 0 mm 1 mps 680 mmHg 51%
    16:00 +16°C° 0 mm 1 mps 680 mmHg 59%
    17:00 +14°C° 0 mm 1 mps 680 mmHg 66%
    18:00 +12°C° 0 mm 1 mps 680 mmHg 73%
    19:00 +11°C° 0 mm 1 mps 679 mmHg 80%
    20:00 +10°C° 0 mm 1 mps 680 mmHg 81%
    21:00 +9°C° 0 mm 0 mps 680 mmHg 82%
    22:00 +9°C° 0 mm 0 mps 680 mmHg 83%
    23:00 +8°C° 0 mm 0 mps 680 mmHg 83%

    26 October, Saturday

    Time Temperature Precipitation Wind Pressure Humidity
    00:00 +8°C° 0 mm 0 mps 680 mmHg 83%
    01:00 +8°C° 0 mm 0 mps 680 mmHg 84%
    02:00 +8°C° 0 mm 0 mps 680 mmHg 83%
    03:00 +7°C° 0 mm 0 mps 679 mmHg 83%
    04:00 +7°C° 0 mm 0 mps 679 mmHg 83%
    05:00 +9°C° 0 mm 1 mps 679 mmHg 80%
    06:00 +9°C° 0 mm 1 mps 680 mmHg 78%
    07:00 +9°C° 0 mm 1 mps 680 mmHg 76%
    08:00 +12°C° 0 mm 1 mps 681 mmHg 66%
    09:00 +14°C° 0 mm 0 mps 682 mmHg 56%
    10:00 +17°C° 0 mm 0 mps 683 mmHg 46%
    11:00 +18°C° 0 mm 0 mps 683 mmHg 43%
    12:00 +20°C° 0 mm 0 mps 683 mmHg 39%
    13:00 +21°C° 0 mm 0 mps 683 mmHg 36%
    14:00 +19°C° 0 mm 0 mps 682 mmHg 42%
    15:00 +18°C° 0 mm 0 mps 681 mmHg 48%
    16:00 +16°C° 0 mm 0 mps 681 mmHg 55%
    17:00 +14°C° 0 mm 0 mps 680 mmHg 57%
    18:00 +13°C° 0 mm 0 mps 680 mmHg 60%
    19:00 +12°C° 0 mm 1 mps 680 mmHg 62%
    20:00 +12°C° 0 mm 1 mps 680 mmHg 62%
    21:00 +12°C° 0 mm 1 mps 680 mmHg 62%
    22:00 +11°C° 0 mm 1 mps 680 mmHg 61%
    23:00 +11°C° 0 mm 1 mps 680 mmHg 61%

    27 October, Sunday

    Time Temperature Precipitation Wind Pressure Humidity
    00:00 +11°C° 0 mm 1 mps 680 mmHg 60%
    01:00 +11°C° 0 mm 1 mps 680 mmHg 60%
    02:00 +10°C° 0 mm 1 mps 680 mmHg 59%
    03:00 +10°C° 0 mm 1 mps 679 mmHg 57%
    04:00 +10°C° 0 mm 1 mps 679 mmHg 56%
    05:00 +10°C° 0 mm 1 mps 679 mmHg 55%
    06:00 +10°C° 0 mm 1 mps 679 mmHg 53%
    07:00 +10°C° 0 mm 1 mps 679 mmHg 52%
    08:00 +13°C° 0 mm 1 mps 680 mmHg 46%
    09:00 +16°C° 0 mm 1 mps 681 mmHg 40%
    10:00 +18°C° 0 mm 0 mps 682 mmHg 35%
    11:00 +19°C° 0 mm 0 mps 681 mmHg 32%
    12:00 +20°C° 0 mm 0 mps 681 mmHg 30%
    13:00 +21°C° 0 mm 0 mps 681 mmHg 28%
    14:00 +19°C° 0 mm 0 mps 680 mmHg 34%
    15:00 +18°C° 0 mm 0 mps 680 mmHg 40%
    16:00 +16°C° 0 mm 0 mps 679 mmHg 47%
    17:00 +14°C° 0 mm 0 mps 679 mmHg 49%
    18:00 +14°C° 0 mm 1 mps 678 mmHg 51%
    19:00 +12°C° 0 mm 1 mps 678 mmHg 53%
    20:00 +12°C° 0 mm 1 mps 678 mmHg 53%
    21:00 +11°C° 0 mm 1 mps 678 mmHg 53%
    22:00 +11°C° 0 mm 1 mps 678 mmHg 54%
    23:00 +11°C° 0 mm 1 mps 677 mmHg 53%

    28 October, Monday

    Time Temperature Precipitation Wind Pressure Humidity
    00:00 +11°C° 0 mm 1 mps 677 mmHg 53%
    01:00 +10°C° 0 mm 1 mps 677 mmHg 53%
    02:00 +10°C° 0 mm 1 mps 677 mmHg 53%
    03:00 +10°C° 0 mm 1 mps 677 mmHg 52%
    04:00 +9°C° 0 mm 1 mps 676 mmHg 51%
    05:00 +9°C° 0 mm 1 mps 676 mmHg 51%
    06:00 +9°C° 0 mm 1 mps 676 mmHg 50%
    07:00 +9°C° 0 mm 0 mps 676 mmHg 49%
    08:00 +11°C° 0 mm 0 mps 677 mmHg 44%
    09:00 +14°C° 0 mm 0 mps 678 mmHg 40%
    10:00 +17°C° 0 mm 0 mps 679 mmHg 36%
    11:00 +17°C° 0 mm 0 mps 679 mmHg 35%
    12:00 +20°C° 0 mm 1 mps 679 mmHg 35%
    13:00 +21°C° 0 mm 1 mps 679 mmHg 34%
    14:00 +19°C° 0 mm 1 mps 678 mmHg 41%
    15:00 +18°C° 0 mm 1 mps 678 mmHg 48%
    16:00 +15°C° 0 mm 1 mps 677 mmHg 55%
    17:00 +13°C° 0 mm 1 mps 677 mmHg 61%
    18:00 +11°C° 0 mm 0 mps 676 mmHg 66%
    19:00 +9°C° 0 mm 0 mps 676 mmHg 72%
    20:00 +9°C° 0 mm 0 mps 676 mmHg 74%
    21:00 +8°C° 0 mm 0 mps 676 mmHg 76%
    22:00 +8°C° 0 mm 0 mps 676 mmHg 77%
    23:00 +8°C° 0 mm 0 mps 676 mmHg 78%

    29 October, Tuesday

    Time Temperature Precipitation Wind Pressure Humidity
    00:00 +7°C° 0 mm 0 mps 676 mmHg 78%
    01:00 +7°C° 0 mm 0 mps 676 mmHg 79%
    02:00 +7°C° 0 mm 0 mps 676 mmHg 79%
    03:00 +7°C° 0 mm 0 mps 676 mmHg 79%
    04:00 +6°C° 0 mm 0 mps 676 mmHg 80%
    05:00 +7°C° 0 mm 0 mps 676 mmHg 80%
    06:00 +7°C° 0 mm 0 mps 676 mmHg 81%
    07:00 +7°C° 0 mm 0 mps 677 mmHg 82%
    08:00 +8°C° 0.1 mm 1 mps 677 mmHg 83%
    09:00 +9°C° 0.1 mm 1 mps 677 mmHg 85%
    10:00 +9°C° 0.1 mm 1 mps 677 mmHg 86%
    11:00 +9°C° 0.3 mm 1 mps 678 mmHg 87%
    12:00 +9°C° 0.3 mm 1 mps 678 mmHg 88%
    13:00 +9°C° 0.3 mm 1 mps 678 mmHg 89%
    14:00 +9°C° 0.7 mm 1 mps 678 mmHg 91%
    15:00 +8°C° 0.7 mm 1 mps 677 mmHg 93%
    16:00 +6°C° 0.7 mm 2 mps 677 mmHg 96%
    17:00 +6°C° 0.6 mm 2 mps 677 mmHg 96%
    18:00 +6°C° 0.6 mm 2 mps 678 mmHg 96%
    19:00 +5°C° 0.6 mm 2 mps 678 mmHg 97%
    20:00 +5°C° 0.3 mm 2 mps 678 mmHg 96%
    21:00 +5°C° 0.3 mm 2 mps 678 mmHg 96%
    22:00 +4°C° 0.3 mm 2 mps 679 mmHg 96%
    23:00 +4°C° 0.2 mm 2 mps 678 mmHg 96%
    Show more